Theta_e
355 355 358 362 362 362 362 362 363 364 363 363 362 362 361 361 361 362 361 361 361 361 362 362 363 363 362 364 364 363 362 362 363 363 363 362 362 361 361 362 363 363 363 364 364 363 362 363 363 363 362 360 361 363 364 362 363 364 364 363 364 363 364 365 365 365 365 364 364 362 362 363 363 362 362 362 362 362 363 363 361 360 359 358 361
354 357 357 359 362 362 361 362 363 363 363 363 363 362 362 361 362 361 361 361 360 361 362 362 363 363 363 363 364 363 363 363 364 363 362 362 362 362 362 362 363 363 363 364 364 363 363 363 363 363 361 360 360 360 362 364 365 365 365 364 364 364 364 365 364 363 363 363 362 363 362 362 361 363 362 362 362 361 361 362 363 360 358 361 363
357 356 357 359 362 361 361 362 362 362 363 363 362 362 362 361 361 361 361 360 360 361 362 363 362 363 364 364 363 363 363 363 363 362 361 361 362 362 361 361 362 362 363 363 362 363 364 363 362 362 362 361 361 360 361 363 364 364 365 365 364 364 363 363 362 363 362 364 364 364 364 364 363 362 362 360 360 362 361 362 363 362 357 362 361
355 355 356 360 361 362 361 361 362 362 362 362 362 362 361 361 361 360 360 360 360 361 363 363 362 363 363 363 363 362 364 364 363 362 362 362 362 362 362 361 362 362 362 362 362 363 364 363 363 362 363 363 361 360 361 364 365 364 364 364 364 364 363 362 361 362 364 364 365 364 362 358 360 363 362 362 361 362 363 362 361 361 361 361 361
354 355 356 357 358 361 362 361 362 362 362 362 362 361 362 361 361 360 360 361 361 361 362 363 363 363 363 362 363 363 364 364 364 363 362 362 361 362 362 362 361 361 362 363 363 363 362 362 362 363 363 363 363 362 362 364 364 364 365 364 364 363 362 361 361 362 362 363 364 363 357 358 358 362 362 363 362 363 362 362 362 362 362 361 361
354 355 356 357 358 359 361 361 362 361 362 362 361 361 361 362 361 361 361 362 362 362 362 363 363 363 363 363 363 363 363 363 363 363 362 362 362 361 361 361 361 361 361 361 362 363 362 363 363 363 364 364 364 363 363 364 364 364 364 363 363 364 364 363 363 364 363 362 363 357 355 356 357 359 362 362 362 361 361 361 361 360 361 361 361
354 355 357 357 357 358 360 360 361 361 361 361 361 361 361 361 361 361 362 363 362 362 362 362 362 362 362 362 363 363 363 362 363 362 363 362 361 361 361 361 361 361 361 361 362 363 362 363 363 364 364 364 364 364 364 364 364 364 364 365 364 364 364 364 363 362 362 363 355 352 354 356 357 357 362 362 362 362 361 361 361 360 359 360 360
355 355 356 356 356 359 360 360 360 361 361 361 362 361 361 361 361 361 362 363 362 361 362 361 362 362 362 361 362 363 363 363 362 362 362 362 362 361 361 361 361 361 361 361 361 362 362 362 364 364 364 364 364 364 364 364 364 364 364 364 364 364 363 363 362 362 363 358 354 351 352 353 355 356 360 361 360 360 359 358 358 360 360 360 361
354 355 356 355 356 360 360 360 360 361 361 363 362 361 361 361 361 362 362 363 363 362 361 361 361 361 361 361 362 362 363 363 362 362 362 362 362 361 360 360 361 362 362 361 362 362 362 362 363 364 364 365 364 364 364 364 364 363 363 363 363 364 364 363 364 363 363 362 355 351 352 353 355 355 359 359 359 360 360 359 359 360 360 358 359
354 355 355 354 355 360 360 361 361 361 362 362 361 361 361 361 361 361 362 362 362 361 361 361 361 361 361 361 361 362 362 362 362 361 362 362 362 361 360 360 361 361 361 361 361 361 363 363 363 363 363 363 363 363 363 363 362 361 361 361 361 361 363 361 364 362 358 353 351 351 354 358 353 355 359 360 360 360 360 360 360 359 360 360 360
354 354 355 356 356 360 361 362 362 362 362 362 362 361 361 361 361 360 362 361 361 361 361 362 361 361 360 361 362 361 362 362 362 362 362 362 362 361 361 361 360 361 361 361 362 361 362 362 362 363 362 362 363 363 362 361 361 359 359 360 359 360 361 362 364 361 357 352 352 353 358 360 352 354 360 360 360 360 361 361 361 360 360 359 359
353 355 356 357 363 361 361 362 362 362 362 362 362 362 362 361 360 360 361 361 361 360 360 361 361 361 361 361 361 362 362 362 361 361 362 362 362 361 361 361 360 361 362 362 361 362 363 363 363 362 362 361 361 360 360 358 357 356 357 356 359 360 362 365 366 351 350 352 353 353 353 354 354 355 359 359 360 360 360 360 359 358 358 358 359
355 356 358 360 360 362 362 362 362 362 363 361 362 362 362 361 360 360 361 361 360 360 360 361 361 361 361 361 361 362 362 362 362 362 362 361 361 361 360 360 361 361 362 362 362 362 362 364 364 362 362 362 361 361 361 360 360 358 359 360 360 361 362 366 363 350 350 352 353 353 353 353 354 360 359 358 357 357 357 357 357 357 357 357 357
355 356 357 357 358 364 362 362 362 362 362 362 361 361 361 360 360 360 360 361 360 360 359 360 361 361 361 361 361 362 362 362 363 362 362 361 361 361 361 361 361 361 361 361 362 363 364 364 365 364 363 363 362 362 361 360 360 361 360 362 362 363 364 365 361 350 351 351 353 353 353 355 353 360 357 356 356 356 356 356 356 356 356 355 355
354 355 357 358 358 358 363 362 362 362 362 362 361 361 361 360 359 359 361 361 360 360 359 359 359 361 361 361 361 361 362 362 362 362 361 361 360 361 361 361 361 362 361 362 363 364 364 364 364 364 363 363 362 362 362 361 360 361 362 361 364 364 365 362 361 352 352 353 354 353 352 352 357 357 357 357 356 355 354 354 354 355 353 354 353
356 356 357 357 357 358 359 362 362 361 361 361 361 360 360 359 359 360 361 360 361 360 360 359 359 360 360 361 360 361 361 362 362 362 361 361 360 361 361 361 362 362 362 363 363 364 365 365 365 364 364 363 362 362 362 362 362 362 361 364 363 365 366 365 360 345 350 349 351 353 352 354 358 358 357 356 355 354 354 353 352 351 350 351 352
357 357 356 356 357 356 357 358 359 361 360 360 360 360 360 359 359 360 360 360 361 360 359 361 361 361 360 361 360 361 361 361 362 362 360 360 360 361 360 361 362 362 362 363 363 364 364 364 364 364 364 363 362 362 362 362 363 362 362 362 364 365 365 365 361 344 349 352 352 351 351 353 357 357 356 355 353 351 351 351 353 353 352 351 351
357 356 355 355 356 357 357 357 356 356 357 358 359 360 359 359 359 360 360 361 360 360 360 361 361 360 360 361 360 360 361 361 361 361 361 360 360 360 360 361 362 363 363 363 363 363 363 363 363 364 363 363 363 362 363 363 363 363 363 364 364 365 365 366 361 348 353 355 349 353 353 358 358 357 356 353 352 353 353 354 353 351 351 351 352
356 356 355 355 354 354 353 352 353 355 354 354 355 357 359 359 359 359 360 361 360 361 361 360 360 360 361 361 361 362 362 362 361 361 361 361 361 361 361 362 362 363 363 363 363 363 363 363 363 364 363 363 364 363 363 363 363 365 365 365 366 367 367 367 361 345 352 348 349 350 352 358 357 356 353 353 354 353 352 352 349 351 353 353 352
354 354 354 354 353 353 351 349 349 351 351 351 352 355 358 359 359 360 360 360 361 362 362 360 360 361 362 361 361 360 361 360 362 359 361 361 361 360 362 363 363 362 363 363 363 363 364 364 364 364 364 364 364 363 364 364 365 365 366 366 367 367 363 358 357 346 346 349 351 350 357 357 355 355 354 353 353 353 354 354 354 353 353 355 356
353 352 352 353 355 352 352 351 352 352 351 352 352 354 357 359 359 359 360 360 361 361 360 360 361 360 360 361 361 359 358 358 359 359 362 361 361 362 363 363 363 362 363 362 363 363 363 364 364 365 364 365 363 365 365 365 366 367 367 369 369 365 361 358 354 350 350 353 354 352 358 356 356 356 355 355 354 355 355 355 355 356 356 355 355
348 349 351 352 352 353 352 352 353 351 350 351 352 354 356 356 354 356 358 357 359 360 359 359 361 357 361 360 359 361 358 357 359 363 361 361 361 363 364 364 364 364 364 361 362 363 363 364 364 365 365 365 366 363 363 366 366 367 368 369 367 363 361 358 346 347 349 350 356 357 358 358 357 356 356 355 354 355 355 356 355 354 355 356 356
347 348 348 349 349 351 352 351 353 351 351 350 351 352 349 349 350 352 356 359 359 360 357 359 356 357 358 358 360 358 358 358 359 362 363 363 362 364 365 364 364 364 363 361 362 362 363 363 364 364 366 365 364 359 359 357 355 364 368 363 363 361 360 352 345 345 347 352 353 359 359 358 357 357 356 356 356 356 356 356 356 356 357 358 359
347 348 348 350 350 351 351 351 351 349 349 348 350 350 348 349 349 350 352 354 355 358 357 357 356 358 358 357 357 357 358 356 363 364 364 361 360 364 365 365 364 362 362 362 363 364 365 365 365 366 367 365 359 358 358 356 355 354 355 359 361 361 352 346 345 344 348 355 355 360 359 359 358 358 358 358 358 358 358 357 357 358 358 360 361
347 349 351 350 351 352 353 352 352 350 349 350 350 348 349 348 349 350 353 354 354 355 356 357 357 358 357 359 359 358 358 355 355 355 353 355 354 356 357 357 357 356 364 357 357 359 362 359 359 363 360 359 358 357 356 354 355 355 354 357 358 356 347 346 344 344 345 350 357 360 360 360 359 360 360 358 358 358 358 357 358 358 359 361 361
350 348 348 351 352 353 353 352 353 351 351 351 349 351 351 349 349 352 355 354 355 355 355 356 357 357 357 358 358 356 354 353 351 351 350 351 353 352 353 355 355 356 360 357 357 356 354 356 357 356 356 358 356 355 353 356 353 352 351 349 345 346 346 344 344 343 346 350 358 361 362 362 362 362 361 360 359 359 359 359 360 360 361 362 362
348 348 350 351 352 353 352 352 352 353 353 353 353 353 352 352 353 354 354 354 354 355 355 357 356 356 355 355 355 354 350 350 350 351 349 350 350 351 350 353 354 354 357 355 356 357 355 353 353 354 355 356 355 354 353 354 351 347 345 344 345 346 347 347 345 344 345 350 358 362 362 362 363 363 363 363 362 361 361 362 362 363 363 364 365
348 349 350 350 352 352 353 353 353 354 354 354 353 353 353 353 353 357 356 357 354 354 353 354 357 354 355 354 357 350 349 349 350 352 352 355 355 357 357 358 357 357 357 356 355 356 355 353 352 353 354 354 354 353 345 344 343 343 344 345 346 346 346 349 348 347 346 348 355 361 362 362 363 363 364 364 364 364 364 364 364 364 364 365 365
347 349 350 350 351 353 353 353 354 354 354 354 354 353 354 354 355 356 354 360 353 352 352 353 355 356 356 356 355 347 347 348 350 352 354 354 355 354 356 355 357 353 354 354 355 353 354 353 355 356 352 352 348 344 343 342 342 342 342 344 345 347 347 347 347 347 347 348 352 359 363 362 361 363 363 364 364 365 365 365 365 366 366 367 367
347 349 349 350 352 353 351 352 353 353 354 353 350 351 352 353 356 356 355 359 353 354 353 353 354 355 355 356 351 346 347 349 352 353 354 354 354 355 357 356 353 352 356 354 354 354 352 350 353 352 351 351 348 353 348 340 341 342 342 342 342 346 345 343 346 347 349 349 350 355 363 364 362 363 363 363 364 365 365 366 367 368 368 369 369
348 349 350 350 353 352 351 352 352 356 354 351 350 350 352 352 354 353 353 356 355 353 353 353 351 351 356 358 356 352 349 349 350 357 356 356 355 355 354 356 354 352 356 356 356 358 364 352 353 351 349 348 351 349 348 340 341 340 344 341 342 344 344 344 344 348 349 349 351 353 362 365 365 365 364 364 365 365 365 366 368 369 370 370 371
347 348 350 351 351 352 352 353 353 354 353 352 353 350 350 351 353 351 352 355 356 350 349 351 356 358 360 359 358 359 363 362 363 358 357 356 356 355 358 353 348 356 359 359 356 359 361 357 356 357 352 352 352 354 351 339 340 340 342 339 342 342 342 342 340 344 348 350 351 351 354 362 367 367 367 367 366 367 367 367 368 369 370 371 371
349 349 350 351 350 351 352 354 354 353 352 353 353 352 351 352 353 352 353 354 353 350 348 352 357 360 361 363 363 364 363 362 364 360 364 358 357 358 359 357 355 356 358 363 362 365 362 357 355 357 358 356 348 347 347 338 338 338 338 340 341 342 341 340 340 340 345 350 349 349 350 358 362 369 369 369 368 369 369 369 370 371 371 371 372
348 349 350 349 352 353 353 354 354 354 352 353 352 353 353 352 353 352 355 352 350 348 352 355 359 361 363 362 362 365 365 366 363 362 361 359 358 360 355 358 360 363 366 363 354 356 357 360 356 354 357 350 347 345 344 343 339 339 338 338 342 342 341 338 337 338 340 345 346 351 351 354 356 357 362 371 370 371 372 372 372 373 373 373 373
349 349 349 349 352 352 353 351 354 353 355 354 353 351 351 351 350 349 350 348 347 349 351 354 356 359 363 363 364 366 364 364 364 362 364 360 359 356 357 354 361 362 363 364 359 358 359 358 358 350 350 350 351 349 347 341 342 345 340 342 339 339 339 335 336 337 338 340 341 348 350 354 355 355 359 358 368 369 370 373 375 375 375 375 375
348 348 349 350 350 351 353 352 353 352 352 353 351 350 349 348 347 354 348 348 347 349 350 353 355 359 362 361 365 369 366 364 365 368 362 361 356 357 358 363 366 362 364 359 356 353 352 356 358 354 348 351 355 349 342 340 338 337 343 342 342 348 342 336 337 337 336 338 341 345 346 349 351 352 362 356 357 360 368 372 376 375 373 373 375
349 349 349 348 348 349 351 351 351 350 349 351 348 347 345 344 346 349 346 345 345 348 350 352 355 358 360 362 364 368 367 367 365 367 363 358 357 357 356 359 368 362 360 358 359 361 355 355 354 360 356 353 353 350 344 342 339 340 338 338 342 346 341 348 345 336 342 339 339 342 345 345 348 366 355 353 356 357 361 368 373 376 374 372 373
349 349 348 346 346 347 348 348 348 348 347 348 349 346 346 347 347 346 355 344 345 350 352 352 354 357 359 361 365 368 368 366 366 367 365 366 366 360 355 363 364 361 357 355 355 358 355 355 352 356 359 355 352 349 344 341 339 337 338 335 339 342 342 345 347 361 336 336 339 339 340 342 345 349 351 347 344 349 355 361 369 372 373 373 373
348 347 345 344 344 345 347 349 346 346 347 350 349 346 346 348 348 347 348 350 351 353 353 352 355 358 360 362 365 366 369 367 368 370 366 366 362 364 362 362 364 364 360 355 359 357 357 355 354 355 362 359 352 352 348 346 345 340 333 334 337 347 340 343 348 342 341 338 336 345 340 343 343 341 342 344 343 345 352 353 353 357 359 369 377
347 346 346 343 344 345 345 346 346 348 349 352 348 344 347 347 345 347 346 349 350 356 356 351 354 357 361 363 366 364 367 367 367 368 368 370 365 363 365 363 362 360 357 356 353 358 357 356 354 363 352 359 363 355 347 349 351 349 347 338 339 338 340 346 343 341 348 341 344 345 339 346 347 346 344 344 343 345 350 361 364 359 356 358 368
346 346 343 344 344 344 346 345 347 349 350 348 343 343 345 344 347 346 345 347 348 350 352 352 354 356 360 362 364 364 365 367 369 369 367 369 368 365 365 362 365 364 362 358 357 363 363 361 364 363 361 349 352 348 346 355 342 340 348 345 342 343 353 354 342 340 340 344 340 341 343 342 349 347 349 346 347 352 356 357 358 359 359 359 360
345 343 342 344 344 345 346 347 348 349 350 350 346 349 348 345 346 347 348 347 349 348 348 353 353 360 361 362 365 365 366 366 367 366 368 367 365 366 366 363 367 360 370 375 363 372 363 362 361 357 357 350 346 348 349 344 340 339 342 343 349 345 356 347 343 342 342 345 345 349 350 341 344 345 347 344 346 348 348 351 357 358 356 357 359
344 343 343 344 343 344 346 348 348 348 349 352 349 348 352 348 348 350 349 350 352 352 351 354 357 357 361 364 365 364 365 365 365 368 366 366 366 367 365 367 365 370 366 362 360 364 364 358 357 354 352 354 355 352 349 346 338 349 350 345 339 336 346 345 352 350 345 342 345 345 350 345 344 351 354 346 344 346 351 353 352 354 356 359 358
344 343 344 344 344 347 348 347 348 349 349 355 355 351 353 351 350 351 354 351 349 355 353 355 355 358 360 363 364 364 365 364 363 366 365 366 365 362 364 366 365 369 366 361 360 360 356 356 356 359 354 344 345 346 355 350 352 346 336 338 337 340 335 336 341 345 347 342 353 344 347 342 343 352 349 348 348 351 350 351 353 354 354 355 358
343 343 345 345 346 348 349 348 348 348 349 358 354 352 359 350 350 352 357 354 355 353 350 352 353 359 359 360 363 363 363 362 361 364 365 365 364 364 365 364 368 367 361 366 358 360 357 357 357 358 353 345 344 348 354 354 350 357 347 343 337 334 335 337 338 339 351 342 347 345 346 345 341 350 348 348 348 352 350 348 349 351 353 353 353
342 344 346 346 347 348 350 349 349 349 349 353 355 354 359 350 349 349 346 345 347 347 346 347 351 354 354 357 360 362 362 361 361 363 366 367 364 364 364 365 363 366 371 361 364 363 355 356 357 358 355 357 350 350 350 356 356 355 351 351 344 334 336 340 337 332 346 359 348 344 343 342 345 346 348 348 347 348 354 349 349 349 351 351 356
343 345 346 347 347 348 350 349 351 348 350 352 358 360 356 354 352 350 348 348 347 347 348 350 352 353 354 356 355 358 361 360 363 362 364 367 364 366 364 363 364 361 367 361 358 358 357 359 366 359 358 368 358 349 352 353 355 355 352 353 354 351 350 341 336 339 333 342 351 346 343 344 344 346 345 346 348 348 352 353 349 349 350 351 357
344 345 345 347 347 348 350 348 352 351 350 354 357 358 355 355 353 350 352 349 349 347 349 350 353 357 352 353 357 357 358 362 362 363 366 367 366 365 365 366 363 363 367 362 359 358 362 365 365 362 367 368 361 353 351 358 345 346 358 353 354 355 348 349 346 343 337 332 337 345 346 346 346 345 349 350 352 350 350 350 349 349 351 355 360
343 344 344 347 348 349 350 348 352 351 349 356 357 357 357 356 353 351 349 349 348 350 355 357 354 357 353 353 356 358 360 363 363 365 364 365 368 365 364 365 366 363 368 360 357 360 359 361 363 362 362 363 363 362 357 354 352 349 349 351 353 349 347 349 351 344 340 336 336 339 339 345 347 344 349 352 350 349 350 349 350 354 356 360 361
343 345 344 348 349 350 350 348 351 351 350 355 356 356 356 359 353 352 346 349 352 351 351 352 353 355 356 355 353 355 357 359 362 365 363 364 364 368 365 366 365 365 368 357 356 356 359 360 362 363 361 362 362 362 362 360 358 354 348 349 348 351 348 349 350 344 342 342 334 337 341 340 335 342 350 349 348 349 351 349 348 349 351 352 359
342 343 343 348 349 350 351 348 350 351 352 355 354 355 355 355 353 354 347 350 347 351 350 352 354 356 353 357 355 356 356 356 358 363 363 365 363 368 365 363 363 370 369 358 359 356 357 359 360 364 364 361 361 361 361 359 358 355 352 350 351 347 343 346 344 342 343 342 340 340 339 342 342 342 344 351 354 353 350 348 348 349 355 359 360
Wind_Speed
4 6 5 10 11 12 12 12 13 14 15 14 14 13 13 13 13 13 12 12 11 11 12 13 14 13 14 14 14 14 14 14 15 16 17 17 18 18 17 17 17 18 17 18 17 18 18 19 16 13 12 11 12 13 13 13 15 14 14 13 15 17 17 17 16 16 16 16 16 15 16 16 15 16 15 14 14 15 14 14 13 10 8 6 13
7 5 5 6 11 11 12 13 14 14 14 14 13 13 13 13 13 12 12 12 12 11 11 13 13 13 14 14 14 14 14 15 15 15 16 17 17 17 17 17 17 18 18 18 18 17 17 19 18 15 13 11 12 12 10 12 14 14 13 13 14 15 16 16 16 16 16 16 16 15 15 14 14 13 14 14 12 11 14 15 15 6 4 11 13
6 4 4 7 12 11 12 13 14 14 14 14 14 14 13 13 13 13 13 12 12 12 13 13 14 14 14 14 15 15 15 16 16 15 15 16 16 16 17 18 17 17 18 18 18 18 18 18 18 16 14 11 10 11 10 9 13 13 13 13 13 14 15 15 16 17 17 17 15 17 17 16 15 14 14 15 14 14 15 15 14 12 7 13 12
7 4 4 8 11 9 12 13 13 14 14 14 14 14 13 14 14 14 13 12 12 12 13 14 15 14 15 15 15 16 15 15 15 15 15 16 16 17 17 17 17 17 16 16 17 18 19 18 17 16 14 12 10 9 8 10 12 13 13 13 13 12 13 14 15 16 16 16 16 13 6 6 10 15 15 16 16 16 15 15 14 14 14 13 13
9 6 5 5 6 7 11 12 13 13 14 14 14 14 14 14 14 14 13 13 12 12 14 15 14 14 14 15 15 16 16 16 15 15 15 15 15 16 17 16 15 16 16 16 15 16 17 17 17 16 14 13 12 11 9 11 11 12 12 11 11 10 11 10 8 9 12 15 15 9 5 5 6 14 14 15 15 15 15 14 14 13 13 13 12
9 7 6 6 6 6 10 13 13 13 14 14 14 14 14 14 14 14 14 13 13 13 14 14 14 14 14 14 15 16 17 16 15 14 14 15 15 15 16 15 15 15 15 16 15 16 16 16 17 16 16 14 12 11 9 9 11 10 11 10 9 8 6 5 4 5 6 13 13 5 5 4 5 7 14 14 14 14 14 14 14 13 13 13 12
12 7 7 6 6 6 10 12 13 14 14 14 14 14 14 14 14 13 14 14 14 13 13 14 13 13 13 14 15 16 16 16 15 14 14 13 14 14 15 15 15 14 14 14 15 14 15 15 15 16 15 14 13 12 10 9 9 9 8 8 8 7 5 4 3 4 6 5 5 6 5 4 4 4 12 12 12 12 12 12 12 12 12 11 11
9 7 7 6 6 10 12 12 13 13 13 14 13 14 14 14 13 13 14 14 14 13 13 13 13 12 12 14 15 16 16 15 15 14 14 14 13 13 13 14 14 14 15 15 15 15 14 16 14 14 15 14 12 12 10 9 8 7 6 6 5 4 3 2 2 2 4 4 5 6 5 3 3 5 10 11 11 11 11 11 11 12 12 12 10
10 8 7 7 7 15 14 13 13 13 14 14 14 14 13 13 13 13 14 14 14 14 13 13 13 12 12 13 13 15 16 15 15 14 14 13 13 13 13 13 13 13 13 14 14 14 14 14 14 12 13 13 12 11 10 8 7 5 4 4 4 3 3 3 3 0 1 2 6 7 7 4 4 4 9 11 11 12 12 10 10 12 12 12 11
11 9 8 6 7 15 14 14 14 14 14 13 13 14 13 13 12 12 13 14 13 14 14 13 13 13 13 13 13 14 15 15 15 14 13 13 13 12 12 12 13 13 13 13 13 14 12 11 11 12 12 12 11 10 9 7 5 3 3 3 3 2 3 4 5 3 1 6 6 7 7 9 4 5 9 10 10 10 10 11 7 7 8 10 10
12 9 7 7 10 15 15 14 14 14 14 14 13 13 13 13 12 12 13 13 13 13 14 14 13 12 13 13 12 13 14 14 14 13 13 12 12 12 12 12 12 12 13 13 11 12 12 12 12 12 11 11 11 9 8 6 4 2 1 2 3 2 3 4 4 3 2 8 7 6 10 12 4 4 10 11 11 11 11 10 10 10 10 10 9
12 10 7 6 13 15 15 15 14 14 14 14 14 14 13 12 13 13 13 13 13 13 13 13 13 13 12 12 12 13 13 13 13 13 12 12 12 12 11 11 12 12 11 11 12 12 10 10 11 11 11 10 10 9 7 5 3 1 2 2 3 3 5 6 2 3 5 8 8 8 8 7 4 7 12 11 10 10 10 10 9 9 9 9 9
12 10 9 7 8 14 14 14 14 14 14 13 13 14 13 12 12 12 13 13 13 13 12 12 11 12 11 11 13 13 13 13 13 13 13 13 12 10 10 10 10 10 11 10 10 10 11 11 11 11 10 10 9 8 6 4 2 1 1 2 2 4 4 6 2 5 6 7 7 7 7 4 4 8 9 9 8 8 8 7 7 7 7 7 7
13 12 9 8 7 15 15 14 14 14 14 13 13 13 13 12 11 11 12 13 12 12 12 12 12 11 11 11 14 14 13 13 13 13 13 12 11 10 10 9 8 8 9 10 10 9 9 9 10 9 8 8 7 7 6 4 2 1 1 3 3 4 5 5 1 4 8 8 7 8 6 4 4 7 8 8 7 7 7 7 7 6 6 6 5
14 12 8 7 7 8 16 15 14 14 14 14 13 13 13 12 11 12 12 12 13 13 12 11 12 11 11 12 13 14 14 13 13 13 12 11 11 10 9 9 8 7 8 9 9 9 8 9 9 8 8 6 6 5 5 4 2 2 3 4 5 6 7 3 3 4 8 7 7 8 6 4 8 9 9 8 7 6 6 6 6 5 5 4 3
14 13 10 7 7 7 7 13 14 13 13 13 12 13 13 12 12 12 12 12 13 12 11 11 11 9 11 12 13 13 13 13 13 13 12 10 10 9 9 8 7 7 8 8 7 8 8 8 8 7 6 6 5 5 4 4 3 2 2 5 6 6 7 5 1 1 7 7 6 6 6 4 11 10 9 8 7 5 4 5 5 4 3 2 4
12 11 9 9 7 7 7 7 10 14 13 12 13 12 12 12 12 12 12 13 13 12 11 11 9 10 11 11 13 13 13 13 13 12 12 10 9 9 9 8 7 6 6 6 6 6 6 6 6 5 5 5 6 6 5 4 3 3 4 5 6 6 6 6 4 3 7 7 7 5 5 5 9 10 9 9 7 6 5 4 4 4 3 3 2
10 10 9 7 7 7 7 6 6 5 6 9 11 12 12 12 12 12 12 12 12 12 11 10 11 11 11 11 12 12 13 13 13 12 11 10 9 8 8 7 7 6 5 5 5 5 5 5 5 5 6 6 6 5 5 4 3 5 5 7 6 6 5 5 2 2 7 7 6 5 5 7 10 9 9 8 7 6 5 4 3 2 1 1 1
9 8 7 7 7 8 7 6 6 4 5 4 3 8 12 12 12 12 12 13 12 12 12 10 11 11 12 12 12 12 12 13 13 12 11 9 8 7 6 6 4 4 3 4 4 5 5 6 6 5 5 5 5 5 4 4 6 6 8 7 7 7 7 4 2 4 6 6 5 5 5 10 9 10 9 8 6 6 5 3 2 1 2 1 2
8 8 6 5 7 7 6 6 5 5 4 3 3 4 10 12 11 12 12 12 12 12 12 11 10 10 11 12 12 9 10 9 13 9 11 9 7 5 6 5 5 4 4 5 6 6 6 6 6 5 6 6 6 6 6 7 7 8 7 8 8 7 3 1 1 6 6 5 6 5 8 11 10 9 9 8 7 6 5 4 3 2 1 1 2
7 7 5 5 6 7 7 6 5 5 6 4 2 2 6 11 9 11 12 11 11 11 11 11 9 9 9 10 10 6 4 3 6 4 9 4 6 7 6 5 5 5 5 5 6 6 7 7 7 7 7 7 7 7 8 8 8 10 10 9 10 6 4 1 3 5 5 5 5 5 10 11 10 10 9 7 6 7 4 3 2 1 1 1 2
7 6 5 4 6 6 6 7 6 6 6 5 3 2 3 6 3 3 4 6 8 9 6 3 5 1 9 6 4 4 4 3 4 6 3 4 5 8 7 7 6 6 7 7 8 8 8 8 8 7 8 7 9 4 4 7 10 11 11 12 7 4 4 1 5 5 6 6 5 7 12 11 10 10 9 7 5 4 4 4 2 1 2 2 3
7 6 4 5 4 5 6 7 7 6 6 5 4 4 5 4 3 3 3 6 5 5 3 3 1 2 3 3 2 2 4 3 3 5 4 7 6 9 8 8 7 8 8 9 8 8 9 9 9 9 9 10 6 4 4 4 5 10 11 7 3 3 2 3 7 5 6 6 6 11 12 12 11 10 10 9 6 5 5 3 3 3 1 3 4
8 6 6 4 4 5 7 7 8 8 6 5 4 4 4 3 3 2 2 3 4 4 2 3 2 3 3 2 1 1 3 4 7 10 8 5 5 8 9 9 8 9 9 7 7 8 10 10 10 11 7 4 4 4 4 4 5 5 5 5 4 2 2 7 5 5 6 7 6 14 12 12 11 11 10 9 9 7 6 5 2 3 4 4 5
7 7 6 6 5 4 6 6 6 7 7 5 5 4 4 4 3 2 2 3 3 2 1 1 2 3 2 0 1 2 2 5 3 3 4 4 3 3 3 3 3 3 7 3 4 5 5 5 5 6 5 5 4 5 5 5 5 5 4 3 4 2 5 6 5 6 5 6 7 14 13 12 11 11 10 9 8 7 6 5 5 5 5 6 6
7 7 7 7 7 6 5 5 4 6 6 6 5 5 5 4 4 3 3 2 3 2 1 2 4 3 2 2 3 4 2 4 3 4 4 4 4 4 5 5 3 4 4 5 4 4 5 5 5 6 5 5 6 5 7 6 6 4 3 4 5 6 6 6 5 5 5 5 8 15 13 12 11 10 10 9 9 8 7 6 6 6 6 6 7
7 7 7 7 7 7 7 5 5 5 7 6 6 5 3 3 3 3 3 4 4 3 3 2 3 3 3 4 4 4 3 5 4 3 4 5 5 5 5 5 4 5 4 4 5 5 6 6 6 6 6 5 7 6 6 8 6 4 4 6 6 6 7 6 5 6 5 5 7 15 13 12 12 11 11 10 10 9 8 8 8 8 9 9 10
8 9 8 8 7 9 8 7 4 5 5 6 6 6 5 5 4 5 5 4 4 3 3 4 3 4 4 5 4 4 5 4 4 4 5 5 3 2 1 2 3 4 4 5 5 6 6 7 6 5 6 7 7 6 6 6 3 5 4 4 5 4 6 6 6 5 5 5 5 10 13 13 13 12 12 11 10 10 10 11 10 11 11 11 11
10 8 8 9 9 8 8 8 6 6 4 5 5 5 5 4 4 4 4 4 4 3 4 3 4 4 4 4 4 5 5 5 5 4 3 3 2 2 1 3 3 4 4 4 5 7 6 5 7 6 4 5 6 2 5 4 5 5 4 4 5 4 4 6 5 5 5 5 5 8 12 13 11 12 11 11 10 10 11 11 11 11 12 12 12
11 10 9 8 9 9 10 9 8 6 4 5 3 4 4 3 2 3 2 4 4 4 4 5 5 4 4 5 7 5 5 5 3 1 4 3 3 3 2 4 3 4 4 6 3 1 1 3 3 3 1 3 4 2 2 5 4 4 4 4 4 4 4 6 6 6 5 4 4 4 11 10 11 11 11 11 11 11 10 11 11 12 12 12 12
11 10 8 8 9 10 10 10 9 6 4 6 5 4 5 4 3 4 3 5 5 5 5 5 4 4 5 4 5 4 5 4 3 2 4 3 2 3 4 3 4 5 6 4 0 2 1 1 3 3 3 4 5 2 5 4 4 4 4 4 5 6 4 4 5 6 5 5 5 4 6 11 11 11 10 10 11 11 11 11 12 12 13 13 13
12 11 8 8 9 10 11 10 9 8 6 7 6 6 6 6 4 5 5 6 4 5 5 3 5 5 3 5 6 5 5 4 2 3 4 3 3 4 3 3 5 5 2 0 1 3 3 3 3 4 5 5 6 5 2 6 4 5 4 4 6 6 5 4 5 5 5 5 5 5 5 6 11 11 11 11 11 12 11 11 12 12 12 13 13
9 12 10 10 10 10 10 10 10 9 7 9 8 7 6 6 5 6 6 7 5 4 4 5 5 5 4 5 5 5 4 4 3 3 2 3 2 3 4 5 5 3 1 1 0 1 1 2 3 3 4 4 4 5 2 5 5 4 5 4 4 5 5 5 4 3 5 5 5 5 5 5 5 10 11 10 12 12 12 12 13 13 13 12 13
8 8 11 11 9 8 8 8 9 9 8 9 7 7 7 6 5 5 5 6 5 4 4 6 5 5 4 3 5 4 3 3 3 2 1 1 2 3 4 4 2 2 1 2 5 4 4 3 3 3 4 5 6 5 5 1 3 2 4 4 3 5 6 6 5 6 5 6 6 5 6 5 5 5 5 10 12 12 13 13 13 13 12 12 12
8 9 11 12 10 9 8 8 9 9 8 8 9 7 7 7 6 6 5 6 5 5 5 5 5 5 5 4 3 3 3 3 2 2 1 0 2 4 2 2 1 2 3 3 4 4 3 3 3 3 4 3 3 4 6 2 4 2 2 2 5 4 5 5 4 5 4 4 5 6 6 6 6 5 5 5 8 13 13 13 13 12 11 10 11
11 11 9 10 12 11 10 9 10 9 8 9 8 8 8 7 6 6 5 4 6 6 5 5 5 5 4 4 3 3 3 3 3 2 2 2 1 1 2 1 3 3 2 3 3 5 4 4 2 2 5 5 6 5 6 1 5 5 3 4 3 2 1 3 5 5 4 6 6 6 7 6 6 6 6 6 6 7 12 12 11 12 11 11 10
12 12 11 11 11 12 11 12 13 11 10 10 8 8 6 7 6 5 7 5 7 7 6 5 5 4 5 5 3 3 3 3 2 1 2 1 1 1 2 1 3 3 3 4 4 1 2 3 4 3 0 1 2 5 5 3 4 1 3 2 2 2 3 1 0 5 5 5 4 5 5 5 4 6 6 6 6 6 9 12 11 10 11 11 9
11 13 12 12 12 11 11 11 10 10 8 7 6 7 7 7 6 3 3 3 5 5 5 6 5 5 4 4 4 3 2 3 2 1 1 1 2 3 1 2 4 3 3 2 1 2 3 2 4 4 2 2 4 3 4 2 2 4 0 2 2 2 2 2 4 1 3 4 4 4 6 5 5 5 6 5 5 6 5 8 12 9 8 8 7
9 10 9 8 9 10 8 9 8 6 5 5 6 7 8 4 5 6 6 6 6 5 7 6 5 5 5 4 3 2 2 3 2 1 2 2 3 1 2 3 3 3 3 3 3 2 3 2 2 3 2 1 1 3 5 4 2 4 2 2 0 1 1 2 0 1 2 2 4 2 1 2 4 4 5 4 5 4 3 5 5 4 5 6 5
9 7 9 9 6 8 9 8 6 6 5 4 6 7 5 6 6 6 6 5 5 5 4 6 5 5 4 4 3 3 3 3 2 2 2 0 1 3 4 3 3 3 3 2 1 2 2 3 4 3 5 3 1 2 3 3 2 1 1 2 4 4 0 1 2 3 1 3 0 0 3 2 1 3 2 3 3 2 2 1 2 4 4 4 4
9 8 10 9 8 9 9 8 7 6 5 5 6 5 4 4 4 5 5 4 5 4 4 4 6 5 5 4 3 4 3 3 2 1 0 2 3 3 3 3 2 2 2 1 1 3 3 3 3 1 2 4 2 2 3 0 5 4 4 4 3 2 1 0 2 3 2 0 3 2 1 3 2 3 3 3 4 3 0 2 3 3 3 3 3
9 8 9 9 10 10 8 9 7 6 4 4 6 3 4 5 4 3 4 4 4 5 3 2 4 6 5 4 3 3 4 3 3 2 2 2 3 2 2 3 1 2 1 0 1 2 3 3 3 3 2 2 2 3 6 4 4 2 2 3 5 4 1 2 3 2 2 1 0 1 1 3 3 4 4 4 3 2 2 3 4 3 4 4 3
10 9 8 9 11 9 7 8 8 6 5 4 5 4 4 5 4 3 5 3 2 3 3 4 4 6 5 4 4 4 3 3 3 2 2 2 2 2 1 1 1 1 2 2 2 3 2 3 3 2 4 3 2 3 3 4 1 1 1 2 2 2 3 4 2 1 1 3 3 4 3 2 2 3 1 1 3 4 2 3 3 4 4 5 4
9 8 9 9 9 8 8 9 9 7 6 5 5 5 4 6 6 6 4 6 5 4 4 4 5 5 5 5 5 4 4 3 3 3 2 3 2 1 1 0 0 1 2 1 3 2 2 3 3 3 2 3 3 2 3 4 2 3 3 1 1 1 2 3 4 5 2 3 3 3 2 3 1 2 4 5 4 5 5 3 4 5 4 4 4
9 10 10 10 8 9 9 10 8 7 5 5 6 5 5 7 5 4 3 3 4 5 5 3 4 6 5 4 5 4 4 3 3 3 3 3 2 2 1 1 1 0 1 1 1 2 2 3 2 4 3 1 3 2 3 4 5 2 2 1 2 3 0 2 3 4 4 4 5 5 6 6 4 4 3 3 3 3 4 5 3 4 4 4 5
10 10 10 10 9 8 8 8 7 6 6 5 6 6 4 7 6 6 5 4 5 6 6 6 6 6 6 4 5 5 4 4 4 4 3 4 3 2 1 1 0 1 0 2 1 0 1 3 2 2 2 2 1 3 3 3 3 4 3 1 3 1 1 2 2 3 5 0 2 3 5 6 4 3 4 6 6 6 4 4 4 4 4 4 4
9 10 10 10 11 9 7 8 6 7 7 5 6 6 5 5 5 6 6 6 7 5 5 5 6 5 5 5 6 5 4 5 4 4 5 3 4 3 3 2 1 1 1 2 1 1 1 1 1 2 0 1 2 3 3 3 3 1 3 0 1 1 5 1 0 1 4 5 3 2 4 2 4 4 4 5 6 5 5 4 5 5 5 5 4
11 10 11 9 13 10 8 8 6 7 7 5 5 6 6 5 5 4 5 6 6 6 6 6 5 5 6 5 4 4 5 4 4 4 4 4 3 3 3 2 2 1 1 3 2 2 1 1 1 1 1 2 1 1 2 1 1 2 1 1 1 1 1 2 1 2 2 3 6 2 2 4 4 4 4 6 7 7 8 7 5 5 5 5 3
12 10 11 10 12 11 9 8 7 7 8 6 6 6 6 5 5 4 5 5 5 6 5 6 6 5 5 5 4 5 4 4 4 4 4 4 3 3 3 2 2 3 1 4 3 3 3 2 1 1 1 1 1 1 0 2 1 2 2 2 1 0 2 1 2 2 1 1 4 2 5 4 3 4 4 4 5 5 6 6 6 5 5 5 5
13 10 11 11 11 11 9 9 7 7 9 7 7 6 5 5 5 4 7 4 5 5 6 6 6 5 5 5 5 5 5 4 4 4 4 5 4 3 3 3 3 3 1 3 3 3 2 2 3 3 2 2 1 1 2 2 2 3 3 3 1 1 2 0 1 0 1 3 5 4 1 2 5 4 3 5 8 7 6 5 6 5 6 5 6
13 11 11 12 12 12 11 10 7 7 9 8 8 7 6 5 5 4 6 5 6 6 6 5 4 4 5 5 5 5 5 6 6 4 5 4 4 4 4 4 3 3 3 3 3 3 3 3 4 3 2 2 2 1 2 3 3 3 3 4 4 4 3 1 2 2 1 1 2 3 3 2 4 3 5 3 6 7 5 5 6 5 5 5 6
Wind_Direction
161 145 161 144 131 131 132 130 120 114 113 112 106 106 109 106 105 105 103 100 99 100 99 93 94 97 97 100 100 95 93 92 87 86 88 90 90 89 94 91 90 93 91 91 94 96 99 101 100 91 86 82 79 75 83 88 94 95 97 101 102 102 105 108 111 110 108 106 107 108 109 113 115 116 119 118 114 114 115 110 115 105 102 108 107
154 146 140 135 131 129 126 124 119 114 111 111 112 111 107 104 104 103 103 105 107 105 99 97 102 106 104 102 101 101 99 96 92 88 89 89 91 93 89 94 95 96 95 95 97 99 102 101 101 101 94 86 86 82 76 86 90 94 97 97 99 104 107 111 112 113 112 109 107 105 105 106 108 111 118 123 125 118 108 104 100 104 109 119 102
128 126 134 131 129 130 125 122 119 117 115 112 111 110 107 106 106 106 106 108 109 105 96 98 110 111 108 107 105 105 103 100 96 94 93 92 92 94 95 95 98 98 95 97 101 107 104 99 102 103 99 97 90 89 88 84 91 92 94 94 96 100 105 108 112 110 105 100 101 102 102 98 92 92 100 106 98 105 106 106 107 104 109 103 103
124 135 140 130 125 132 125 125 121 118 117 114 111 109 109 109 108 107 110 110 108 105 101 105 112 109 107 108 110 108 105 103 99 98 96 95 96 98 99 98 101 103 100 100 100 102 101 105 108 105 104 103 100 92 92 96 92 94 92 89 95 98 94 97 100 101 101 99 94 92 83 89 99 101 101 104 111 106 106 107 108 108 108 105 108
132 141 132 118 121 130 132 129 123 121 117 113 112 113 115 112 112 116 116 111 107 105 105 105 104 102 106 109 110 109 109 105 104 104 101 100 99 99 100 99 97 98 102 100 98 99 104 110 109 111 113 112 114 113 109 97 96 95 97 97 91 92 103 108 99 93 89 98 95 87 84 89 95 98 101 103 103 104 105 107 106 105 102 103 101
136 140 133 124 127 136 138 128 129 124 119 119 119 117 115 116 119 121 117 112 110 107 105 104 105 107 110 111 110 109 107 106 107 107 105 103 101 99 99 99 97 100 101 100 97 98 101 103 107 109 110 111 111 109 104 104 100 100 103 107 107 108 103 96 95 89 81 100 104 96 85 86 92 97 102 102 101 102 104 105 107 105 102 102 102
139 143 133 131 133 142 138 134 130 127 127 126 124 120 118 117 117 120 117 111 108 106 103 101 99 105 110 110 109 110 109 109 110 109 106 105 103 100 100 103 102 97 96 100 100 102 104 105 108 111 113 113 113 113 113 109 108 108 116 123 115 111 117 119 110 108 104 97 96 103 90 85 88 93 99 100 101 101 104 108 110 109 105 100 98
140 134 134 135 139 145 142 136 132 130 131 128 126 124 120 119 120 120 114 107 108 107 104 103 101 104 107 110 112 112 112 111 110 107 105 105 104 101 101 101 104 106 107 104 105 105 107 106 106 109 109 111 112 110 113 113 113 118 121 111 103 98 86 94 111 94 85 101 118 117 108 89 84 94 102 104 107 106 105 103 106 109 113 113 107
130 126 126 134 146 144 142 139 136 136 132 129 128 126 124 121 121 120 115 113 110 109 107 108 110 108 106 109 111 114 114 113 110 107 104 103 101 100 101 103 103 105 101 104 107 107 107 107 108 111 112 112 112 111 111 114 117 124 112 98 75 57 14 15 348 330 123 149 124 113 110 104 97 99 110 112 114 117 116 110 113 119 119 110 114
131 129 142 145 142 143 142 144 142 137 130 126 128 128 127 121 120 117 115 114 113 113 113 110 110 111 112 111 109 113 112 111 109 107 106 105 102 105 103 100 101 104 106 108 107 108 107 108 111 109 104 105 105 107 107 110 112 108 110 86 60 44 357 338 338 346 358 90 111 120 118 111 108 105 110 111 111 105 112 114 117 109 108 114 116
125 134 139 139 144 142 143 146 144 138 132 131 132 127 127 125 125 123 118 118 118 118 118 118 117 115 112 113 111 113 113 112 109 107 107 106 105 105 105 103 102 104 111 111 115 114 112 113 112 107 106 108 109 110 109 109 109 105 70 57 39 5 314 292 297 282 153 105 105 103 102 102 87 106 114 115 116 116 118 116 115 114 113 113 112
127 131 136 142 142 143 144 146 145 142 139 137 133 128 125 126 129 127 125 121 118 117 116 116 117 115 115 118 117 113 108 110 110 109 108 108 107 106 104 105 107 110 108 110 114 116 114 113 112 109 109 110 110 111 113 109 106 99 11 6 358 325 309 308 303 159 127 106 98 99 106 112 118 116 118 121 120 121 120 116 112 112 110 110 112
126 131 137 140 138 144 144 144 142 140 138 135 133 132 128 130 130 129 125 121 119 118 115 116 116 117 123 122 116 114 113 114 111 111 112 110 109 106 103 106 107 115 118 119 120 120 117 112 109 112 115 115 116 118 119 117 124 118 346 347 311 312 312 316 294 117 111 107 110 111 108 101 103 114 117 122 122 117 106 107 110 106 102 103 102
128 131 135 140 145 141 141 139 137 136 132 129 132 132 130 130 130 130 125 122 120 119 119 120 121 120 118 123 119 118 119 117 114 113 113 114 115 113 110 107 114 115 122 124 122 119 123 119 116 114 115 118 123 121 124 134 165 259 308 303 297 300 311 332 210 125 112 119 113 111 106 110 119 123 127 123 119 116 112 106 107 101 103 100 95
130 132 138 136 134 135 137 133 131 133 131 133 133 132 130 132 132 132 129 125 125 123 124 125 124 121 121 123 120 120 121 119 115 113 112 115 118 116 115 119 123 126 126 126 129 129 127 129 125 120 123 125 130 133 134 160 193 257 299 309 312 317 334 352 341 116 113 112 114 115 118 122 133 132 129 125 125 120 117 117 105 111 102 91 86
126 131 133 129 129 130 128 131 128 130 128 129 129 131 132 134 137 135 133 130 125 124 127 127 126 123 124 121 122 123 122 119 117 115 118 123 124 124 123 126 130 137 135 132 133 135 133 128 127 123 122 138 151 158 172 175 194 267 299 303 310 319 319 316 3 109 111 113 113 119 129 137 138 135 132 131 120 112 102 87 77 80 72 74 56
121 123 126 133 134 126 125 127 135 135 133 132 129 129 129 134 141 137 136 131 126 125 127 131 137 132 126 126 125 123 121 119 120 121 126 129 130 132 131 132 133 133 131 132 136 135 131 128 131 136 151 160 177 190 191 196 221 230 267 279 283 295 304 322 3 97 115 118 123 123 134 137 145 144 135 123 121 124 117 116 101 62 48 31 35
118 128 133 135 128 124 120 120 111 113 123 127 133 134 136 139 143 140 134 126 128 130 129 132 133 129 129 130 126 125 123 123 124 125 130 137 140 139 139 143 141 143 147 146 143 140 145 153 159 172 182 194 207 207 214 229 231 255 257 264 269 281 295 308 26 94 122 122 120 129 133 146 144 134 126 126 131 125 115 93 104 97 60 50 137
109 107 114 126 113 106 115 109 120 109 88 89 114 141 140 141 142 140 135 136 139 135 131 132 131 133 132 131 130 127 126 125 128 132 137 142 146 145 149 156 164 176 186 193 170 173 179 188 197 203 216 231 242 253 251 238 256 256 266 275 285 295 303 325 20 113 103 102 117 130 142 144 137 133 131 129 116 102 98 120 81 119 202 45 66
112 112 109 104 113 115 117 117 120 113 108 109 115 130 141 142 141 143 142 141 140 137 135 135 136 135 132 130 129 126 126 129 133 135 140 145 150 155 169 176 181 191 215 199 198 200 209 216 221 226 234 243 251 258 263 268 267 272 271 274 278 279 280 267 103 120 113 116 118 127 142 140 138 136 130 126 129 130 139 111 136 99 129 205 303
115 112 120 116 115 115 122 128 136 128 124 119 112 116 150 138 141 142 140 139 137 135 133 133 134 134 130 133 124 116 112 123 119 131 141 145 163 171 179 187 194 206 224 212 209 218 220 227 226 234 237 246 253 260 269 271 271 273 272 270 271 266 257 288 109 109 114 120 122 133 143 139 139 138 134 135 149 146 123 117 152 200 304 281 263
119 122 123 129 122 126 129 124 124 123 121 120 109 85 78 89 83 102 128 134 136 130 114 113 133 86 132 115 102 123 125 118 136 147 125 164 174 181 189 199 206 224 227 224 230 227 237 238 247 249 256 259 263 261 273 282 278 273 272 265 258 259 265 81 117 137 123 119 127 144 143 145 145 143 142 148 156 135 162 170 192 259 269 299 285
127 129 128 139 139 130 127 129 129 130 116 112 107 100 96 82 73 88 121 129 134 107 117 124 94 93 87 81 76 133 136 154 164 157 167 178 186 186 199 202 214 226 229 235 240 245 248 255 253 258 256 259 261 267 257 265 279 273 266 272 260 244 292 135 132 135 124 126 134 148 150 149 151 150 153 160 168 182 192 213 197 225 254 279 281
129 131 135 141 149 143 132 138 140 135 123 128 123 112 110 104 120 122 134 111 104 110 111 129 126 97 94 102 231 236 161 175 182 171 171 172 188 196 205 213 216 224 231 242 257 259 259 263 262 260 263 264 264 267 267 250 258 250 238 249 275 309 135 123 125 130 129 134 143 154 156 156 157 159 163 173 175 189 192 198 252 260 252 259 268
136 136 139 154 159 137 126 139 143 135 133 131 123 122 126 124 136 162 122 99 95 84 98 160 132 120 109 161 228 242 202 185 185 139 130 143 160 211 222 216 232 242 241 247 259 265 267 259 268 265 251 253 259 254 254 256 246 250 242 220 233 223 133 115 121 119 130 141 153 157 161 163 165 169 178 179 187 195 204 184 216 230 242 246 254
136 140 155 147 151 141 131 144 146 138 137 132 139 147 142 136 147 157 105 100 112 161 171 145 132 140 152 205 229 210 204 155 147 146 156 160 181 210 212 217 222 234 237 238 252 248 251 245 243 244 240 238 239 240 243 245 244 260 244 195 155 112 110 112 116 119 133 153 159 162 165 169 175 180 188 190 200 204 216 216 224 232 241 254 264
149 145 145 146 146 142 146 152 150 139 142 142 142 141 144 144 136 147 141 164 165 182 167 154 151 170 185 206 225 203 174 150 171 178 175 176 191 201 204 218 222 230 233 229 241 244 243 242 238 244 243 229 238 229 235 246 239 202 133 101 100 118 115 127 121 123 146 158 172 167 170 176 181 189 197 203 209 219 224 231 238 240 244 251 258
142 145 143 143 148 147 149 149 149 150 154 149 145 144 143 150 163 168 161 166 172 179 173 182 179 186 201 209 216 188 165 174 193 195 181 172 176 180 219 248 238 249 241 222 239 250 246 238 238 247 261 257 236 232 190 168 130 91 111 112 105 114 124 126 137 141 149 167 172 178 177 183 187 195 201 210 216 221 227 233 238 242 247 252 256
139 146 142 142 149 150 147 144 155 157 152 145 138 122 134 148 159 182 163 172 179 185 187 190 207 192 205 215 227 184 164 168 181 172 153 121 120 162 245 265 263 266 254 234 229 246 235 231 243 242 220 230 258 164 135 134 121 119 115 119 120 123 130 141 145 152 158 167 179 187 187 189 194 198 206 215 221 226 232 239 244 249 252 254 256
143 145 147 141 145 152 147 150 156 160 152 131 116 132 144 162 179 184 166 173 192 185 191 200 209 187 194 221 230 174 142 143 157 136 137 147 169 195 234 259 265 266 276 248 208 197 292 317 335 309 274 293 314 122 150 127 125 137 134 160 134 149 165 143 156 160 163 166 181 196 196 199 201 207 212 217 224 230 236 241 249 253 253 254 255
141 141 140 141 148 151 150 154 153 157 155 137 150 155 162 178 188 179 186 196 201 187 197 208 183 145 196 172 126 130 129 137 148 162 150 168 185 196 234 245 268 263 250 244 248 326 327 26 310 288 301 299 311 292 151 129 143 153 160 150 143 153 162 170 155 161 164 170 170 185 202 204 210 212 217 224 229 235 237 242 248 251 253 253 254
141 145 146 146 153 154 154 156 154 159 166 154 161 163 174 184 184 176 199 206 204 187 201 179 138 142 107 79 95 96 100 91 121 162 145 153 183 208 240 224 232 249 256 178 274 279 322 280 274 331 329 317 295 283 145 145 150 180 175 165 144 160 165 176 169 164 169 170 169 184 194 207 211 214 217 220 228 234 238 244 247 250 254 258 260
139 147 149 153 158 151 153 155 153 167 172 163 166 168 175 184 190 193 197 200 209 192 170 141 110 103 99 90 95 106 103 105 91 95 123 161 171 217 225 221 245 262 318 16 71 75 114 6 339 343 337 287 330 12 67 155 150 180 164 160 154 154 163 163 192 172 164 172 174 182 192 206 210 214 218 225 231 233 234 238 243 245 247 249 254
138 144 150 152 153 150 153 156 162 170 171 167 161 167 173 180 192 198 195 196 193 161 151 108 113 107 106 103 101 103 92 78 93 76 79 128 228 226 210 221 271 283 19 44 36 9 357 6 3 344 319 355 9 335 15 148 161 137 152 179 170 172 173 178 181 178 166 172 180 180 196 209 203 204 209 225 229 234 236 236 238 239 240 245 251
139 150 159 152 152 153 157 157 167 173 168 163 166 169 172 177 189 196 192 188 153 140 120 117 117 125 113 112 110 102 106 114 120 145 188 151 279 242 250 268 197 86 55 52 53 6 359 351 347 339 315 12 353 333 345 185 116 117 221 153 179 160 172 181 176 187 171 194 175 188 201 200 202 204 209 216 229 232 232 235 237 239 237 239 247
153 157 155 147 154 156 163 156 166 170 170 171 171 169 179 180 184 182 173 167 138 133 137 132 126 122 127 122 126 133 140 153 166 151 94 197 238 319 252 249 85 83 77 66 57 21 348 334 333 346 6 350 353 334 342 127 127 134 155 176 201 197 155 186 173 202 178 183 184 194 200 201 204 206 213 211 222 229 231 232 233 237 239 242 244
148 155 156 162 158 156 156 155 165 174 174 178 176 165 163 168 167 172 175 165 148 152 154 144 133 130 140 143 147 148 164 160 150 122 169 172 298 291 288 191 73 72 61 48 31 42 28 339 328 304 136 260 319 342 337 9 14 250 144 122 108 114 114 171 314 165 156 179 202 201 206 210 220 219 213 201 216 226 229 234 236 233 236 238 246
150 161 164 162 154 148 155 160 162 171 167 166 152 155 154 163 175 153 128 118 123 123 130 132 138 142 142 148 148 156 155 134 130 167 122 353 333 323 233 110 96 85 86 56 20 350 357 30 315 306 280 2 350 346 281 313 83 344 308 109 111 106 139 138 149 168 159 197 213 202 216 207 224 230 220 223 213 217 217 230 235 242 247 250 255
159 161 147 141 138 150 149 140 150 148 139 130 135 136 154 126 91 95 94 96 91 97 117 127 137 135 144 151 148 156 121 128 150 129 76 18 350 260 122 77 84 108 82 50 348 329 322 284 279 294 334 20 260 306 320 310 36 348 224 165 56 79 118 123 69 270 278 264 277 308 286 271 240 223 245 232 233 224 215 219 220 236 252 256 250
161 148 137 138 133 128 129 132 133 132 134 119 118 140 109 112 105 88 79 86 93 94 102 135 136 139 149 144 134 120 111 132 139 94 88 261 339 34 60 68 123 97 83 82 308 295 253 324 345 344 341 346 355 349 353 331 330 340 116 182 137 163 135 218 249 227 287 21 40 10 32 320 123 274 266 324 333 306 158 197 216 229 251 254 268
145 139 137 140 135 132 131 133 134 133 140 128 140 146 126 113 107 120 126 127 122 122 119 126 140 148 146 141 134 135 133 118 93 103 121 40 46 45 50 55 85 108 109 148 268 300 346 6 302 346 348 25 323 342 25 189 43 359 2 7 351 317 334 24 299 353 117 46 341 32 343 20 355 56 2 26 27 22 10 290 267 275 267 267 312
144 141 141 139 139 138 135 136 131 146 153 148 159 151 141 142 143 150 132 133 129 132 144 169 137 136 143 151 146 125 133 133 142 116 85 80 56 55 59 31 26 101 118 42 291 332 346 356 355 352 348 52 357 22 353 54 17 55 23 341 342 339 339 351 88 87 34 78 206 169 41 323 357 30 7 6 13 23 19 14 342 309 310 311 286
146 146 144 138 140 140 138 136 143 156 174 160 150 160 137 147 143 162 143 138 151 155 163 173 149 144 149 156 145 144 151 152 150 132 115 108 89 77 49 37 65 52 47 21 11 342 346 356 22 57 356 347 353 21 21 71 122 246 138 79 353 26 323 351 331 63 355 348 1 19 337 321 324 52 321 342 10 11 9 22 8 11 345 329 321
153 148 148 146 146 144 145 144 153 165 177 162 154 174 153 152 152 158 148 150 154 175 166 159 136 135 146 149 154 160 165 162 162 155 104 95 93 84 23 8 8 108 119 80 15 332 6 18 26 38 89 19 350 334 11 41 94 70 1 128 228 115 354 316 325 295 310 350 356 323 340 314 4 34 22 19 2 12 0 353 10 352 333 328 329
163 156 153 154 156 154 149 151 158 162 169 151 146 152 107 126 141 124 135 117 109 128 139 159 146 150 149 158 165 169 175 167 171 151 142 141 150 162 122 289 293 159 99 88 36 331 9 10 3 28 57 98 3 340 340 27 49 98 150 44 5 28 233 263 326 295 339 353 2 8 15 357 358 30 22 2 1 11 352 344 346 340 320 341 342
171 161 158 159 153 156 148 151 152 156 161 152 151 141 137 132 139 134 145 150 136 147 164 168 156 159 169 170 168 177 177 163 159 166 158 157 163 146 181 206 334 33 140 170 91 20 17 42 348 70 65 84 132 42 345 345 71 72 75 153 168 172 211 279 47 311 321 256 324 40 49 9 42 358 13 359 351 340 344 336 320 331 328 353 338
168 166 160 161 155 158 156 157 154 153 157 154 148 136 136 136 148 154 161 159 155 174 173 165 160 168 159 164 172 173 163 160 168 176 163 167 167 171 188 183 173 183 255 120 164 163 187 163 3 7 287 100 72 40 341 328 1 31 68 105 141 137 146 98 250 303 335 319 348 9 13 2 352 334 356 348 324 335 312 295 312 332 325 318 318
165 172 166 160 155 163 161 163 156 153 160 155 145 144 144 153 164 167 159 163 164 175 174 172 166 159 154 172 165 158 168 160 160 162 151 158 169 163 165 170 168 239 247 164 151 127 309 315 222 250 3 76 111 142 291 345 62 292 7 352 202 175 74 61 124 153 209 293 312 333 16 356 342 335 8 342 331 331 317 318 326 317 321 306 316
169 178 171 154 157 160 160 163 157 154 161 155 151 150 152 170 176 166 160 178 172 168 155 159 157 163 163 162 160 162 158 151 162 168 167 169 179 174 175 180 192 225 160 135 152 159 179 219 293 172 134 166 150 190 168 278 180 253 333 319 273 232 156 197 131 110 153 328 303 307 307 340 340 314 351 329 310 312 312 298 294 303 304 317 313
170 174 168 152 157 158 160 165 168 154 163 157 155 157 166 177 178 171 174 188 158 142 135 142 148 157 148 156 167 168 163 169 175 179 176 178 179 176 171 183 205 221 171 175 166 188 193 206 219 202 187 214 250 163 203 244 229 223 214 229 310 9 64 357 353 66 229 194 234 313 6 337 325 301 340 321 315 315 295 296 306 312 301 285 281
167 176 162 155 156 161 161 167 173 155 163 161 161 167 174 179 181 170 178 160 153 138 142 146 148 148 145 166 176 183 167 184 176 191 185 172 180 179 185 204 211 197 159 171 203 191 205 226 225 199 185 213 244 249 290 287 271 256 230 184 210 202 188 170 228 223 193 358 319 40 341 276 268 308 305 315 282 282 290 314 302 296 285 270 262